Terminal Aerodrome Forecast
Issued by NWS Omaha/Valley, NE

Home | Current Version | Previous Version | Text Only | Print | Product List | Glossary On
Versions: 1 2 3 4 5 6 7 8 9 10 11 12 13 14 15 16 17 18 19 20 21 22 23 24 25 26 27 28 29 30 31 32 33 34
000
FTUS43 KOAX 281647 AAA
TAFLNK
TAF AMD
KLNK 281647Z 2817/0112 16004KT 5SM -SN BR BKN018 OVC030
      TEMPO 2817/2820 2SM -SN
     FM282000 17011KT 3SM -SN OVC012
     FM010300 16008KT P6SM OVC050
     FM010800 22004KT P6SM OVC100=

USA.gov is the U.S. government's official web portal to all federal, state and local government web resources and services.